Location: Newark
(40.9833°N, 0.0333°W)
Time: 17:25:22
(UTC+00:00)

Vanguard 2 Rocket - Pass Details

Date: 27 October 2020
Orbit: 554 x 3326 km, 32.9° (Epoch: 24 November)

Event Time Altitude Azimuth Distance (km) Brightness Sun altitude
Rises 17:15:02 0° 211° (SSW) 2,763 10.2 -3.2°
Reaches altitude 10° 17:18:33 10° 178° (S) 1,818 8.6 -3.9°
Maximum altitude 17:20:06 12° 154° (SSE) 1,718 8.2 -4.1°
Drops below altitude 10° 17:21:42 10° 131° (SE) 1,897 8.2 -4.4°
Enters shadow 17:24:38 - 104° (ESE) 2,716 8.8 -5.0°
Sets 17:25:36 0° 99° (E) 3,052 - -5.2°
